Regional Weather Roundup
Issued by NWS

Home | Current Version | Previous Version | Text Only | Print | Product List | Glossary On
Versions: 1 2 3 4 5 6 7 8 9 10 11 12 13 14 15 16 17 18 19 20 21 22 23 24 25 26 27 28 29 30 31 32 33 34 35 36 37 38 39 40 41 42 43 44 45 46 47 48 49 50
000
ASUS43 KMKX 210721
RWRWI

WISCONSIN REGIONAL WEATHER ROUNDUP
NATIONAL WEATHER SERVICE MILWAUKEE/SULLIVAN WI
200 AM CDT SAT OCT 21 2017

NOTE: "FAIR" INDICATES FEW OR NO CLOUDS BELOW 12,000 FEET WITH NO
SIGNIFICANT WEATHER AND/OR OBSTRUCTIONS TO VISIBILITY.

WIZ001-002-006>008-014>016-023>028-210800-
NORTHWEST WISCONSIN

CITY           SKY/WX    TMP DP  RH WIND       PRES   REMARKS
SUPERIOR ARPT  CLOUDY    64  48  54 S10       29.71S
ASHLAND        CLOUDY    66  44  45 S15G25    29.76S
HAYWARD        LGT RAIN  64  45  49 S15G21    29.79S
SIREN          LGT RAIN  63  49  61 S12G17    29.75S
CUMBERLAND     LGT RAIN  57  48  72 S6        29.79F
RICE LAKE      LGT RAIN  61  49  64 CALM      29.81F
CHETEK         CLOUDY    63  49  58 SE9       29.80F
LADYSMITH      CLOUDY    62  44  52 SE7       29.85F
EAU CLAIRE     PTCLDY    65  45  48 S13       29.82F
MENOMONIE      CLOUDY    64  48  54 S16       29.80F
NEW RICHMOND   CLOUDY    60  50  69 S13G18    29.77S
OSCEOLA        CLOUDY    63  51  66 S10G16    29.78S
$$

WIZ003>005-009-010-017-018-210800-
NORTH CENTRAL WISCONSIN

CITY           SKY/WX    TMP DP  RH WIND       PRES   REMARKS
MANITOWISH WTR PTCLDY    61  43  52 S8        29.87R
ARBOR VITAE    CLOUDY    62  46  55 S10       29.88R
WOODRUFF       CLOUDY    62  46  55 S10       29.88R
RHINELANDER    PTCLDY    63  45  51 S13G21    29.90S
EAGLE RIVER    CLOUDY    60  42  50 S6        29.89R
LAND O LAKES   PTCLDY    61  43  51 S5        29.90R
PHILLIPS       CLOUDY    62  44  52 S10G16    29.85S
TOMAHAWK       CLOUDY    58  45  62 CALM      29.90S
MEDFORD        CLOUDY    58  45  62 S7        29.88S
MERRILL        CLOUDY    62  46  55 S5        29.91S
$$

WIZ029-030-035-036-043>047-210800-
CENTRAL WISCONSIN

CITY           SKY/WX    TMP DP  RH WIND       PRES   REMARKS
WAUSAU         CLOUDY    62  45  53 S8        29.90S
MOSINEE        PTCLDY    59  45  58 S8        29.93R
MARSHFIELD     CLOUDY    63  44  50 S12       29.89S
STEVENS POINT  CLOUDY    61  43  52 S9        29.93S
WAUPACA        CLOUDY    64  47  55 S5        29.95S
WAUTOMA        CLOUDY    65  46  50 S10       29.95R
WISC RAPIDS    CLOUDY    65  45  48 S12       29.93R
CAMP DOUGLAS   NOT AVBL
$$

WIZ011>013-019>022-031-037>040-048>050-210800-
NORTHEAST WISCONSIN

CITY           SKY/WX    TMP DP  RH WIND       PRES   REMARKS
ANTIGO         CLOUDY    53  46  78 SE8       29.94R
SHAWANO        CLOUDY    65  47  51 S7        29.94S
OCONTO         MOCLDY    58  50  76 S3        29.95S
STURGEON BAY   MOCLDY    59  50  72 S10       29.98R
GREEN BAY      CLOUDY    65  48  54 S10       29.96F
MANITOWOC      CLOUDY    53  50  89 CALM      30.00S
APPLETON       CLOUDY    63  43  48 S13G18    29.95S
CLINTONVILLE   CLOUDY    63  46  55 S7        29.94S
OSHKOSH        MOCLDY    61  48  62 S12       29.96S
$$

WIZ032>034-041-042-053>061-210800-
SOUTHWEST WISCONSIN

CITY           SKY/WX    TMP DP  RH WIND       PRES   REMARKS
LA CROSSE      CLOUDY    67  49  52 S20       29.85F
SPARTA         CLOUDY    65  47  52 S14       29.90S
VIROQUA        CLOUDY    62  48  60 S13       29.92R
BOSCOBEL       MOCLDY    67  47  48 S9        29.93R
PRAIRIE DU CHI PTCLDY    65  46  50 SE7       29.90F
PLATTEVILLE    PTCLDY    63  49  62 S10       29.96S
$$

WIZ056-057-062-063-064-067-068-210800-
SOUTH CENTRAL WISCONSIN

CITY           SKY/WX    TMP DP  RH WIND       PRES   REMARKS
REEDSBURG      CLOUDY    64  46  51 S9        29.94R
BARABOO/DELLS  CLOUDY    63  44  49 S12       29.95R
LONE ROCK      CLOUDY    66  48  52 S6        29.95R
MINERAL POINT  CLOUDY    63  48  59 S10       29.96S
MADISON        CLOUDY    63  47  55 S9        29.98R
MIDDLETON      CLOUDY    64  47  52 S15       29.97S
WATERTOWN      MOCLDY    62  48  60 S9        30.00R
MONROE         CLOUDY    61  46  59 S15       29.98F
JANESVILLE     CLOUDY    64  46  52 S9        30.00S
$$

WIZ051-052-058>065-066-070>072-210800-
SOUTHEAST WISCONSIN

CITY           SKY/WX    TMP DP  RH WIND       PRES   REMARKS
MILWAUKEE      CLOUDY    65  48  54 SW13      30.03R
WAUKESHA       MOCLDY    61  45  55 S8        30.03S
MILWAUKEE/TIMM CLOUDY    63  43  48 SW7       30.03R
RACINE         CLOUDY    66  48  52 S10G21    30.05R
BURLINGTON     CLOUDY    63  49  61 S14G20    30.02S
KENOSHA        CLOUDY    66  47  50 S14G22    30.04R
FOND DU LAC    CLOUDY    65  44  46 S10G20    29.97F
SHEBOYGAN      CLOUDY    62  49  62 S10       30.00R
WEST BEND      CLOUDY    61  45  55 S5        30.01R
JUNEAU         CLOUDY    60  47  61 SE7       30.01R
$$

LSZ147-162-210800-
LAKE SUPERIOR

STATION/POSITION TIME  TEMP    WIND        PRES    WAVE
                       AIR SEA DIR/SP/G            HT/PER
                 (UTC) (F)     (DEG/KT/KT) (MB)    (FT/S)
W MID LAKE BUOY  0650   57 52              1008.0F   2/ 5
DEVILS ISLAND    0700   66     190/  9/ 12 1007.2F
SAXON HARBOR     0630   68     190/ 12/ 22 1007.1F
$$

LMZ867-665-643>646-210800-
LAKE MICHIGAN

STATION/POSITION TIME  TEMP    WIND        PRES    WAVE
                       AIR SEA DIR/SP/G            HT/PER
                 (UTC) (F)     (DEG/KT/KT) (MB)    (FT/S)
S GREEN BAY BUOY 0700   61 58  180/ 12/ 14 1014.3
N MID LAKE BUOY  0650   62 58  190/ 17/ 19 1015.5R   4/ 5
NORTHPORT PIER   0640   59     150/  5/ 11 1014.6S
KEWAUNEE LAKESHO 0654   54     180/  9/ 10 1014.4S
SHEBOYGAN LAKESH 0700   57     180/ 18/ 19 1015.7R
PORT WASHINGTON  0640   59     190/  5/  6 1016.9R
ATWATER BUOY     0609   58 53  160/  8/ 10 1016.4S
MILWAUKEE LAKESH 0700   65     200/ 11/ 12   N/A
S MID LAKE BUOY  0650   63 61  180/ 16/ 19 1017.7R   2/ 4
KENOSHA   LAKESH 0700   67     200/ 12/ 18 1016.9
$$

TC  - TEMPERATURE IN CELSIUS
VSB - VISIBILITY IN STATUTE MILES
WCI - WIND CHILL INDEX
HX  - HEAT INDEX




USA.gov is the U.S. government's official web portal to all federal, state and local government web resources and services.